• En España
  • Lista de países
  • Para 7 días
  • Temperatura del agua
  • Mapa Satelital
  • El tiempo en el mapa
  • Informadores
  • user-avatar
    Iniciar sesión

    Tiempo cada hora Darwin

    Hoy, 24 Septiembre, Domingo

    Tiempo Temperatura Precipitaciones Viento Presión Humedad
    00:00 +29°C° 0 mm 2 mps 758 mmHg 71%
    01:00 +29°C° 0 mm 2 mps 758 mmHg 73%
    02:00 +29°C° 0 mm 1 mps 758 mmHg 75%
    03:00 +28°C° 0 mm 1 mps 758 mmHg 77%
    04:00 +28°C° 0 mm 1 mps 758 mmHg 80%
    05:00 +28°C° 0 mm 1 mps 759 mmHg 82%
    06:00 +25°C° 0 mm 0 mps 759 mmHg 84%
    07:00 +30°C° 0 mm 1 mps 759 mmHg 73%
    08:00 +32°C° 0 mm 1 mps 759 mmHg 61%
    09:00 +33°C° 0 mm 0 mps 759 mmHg 46%
    10:00 +36°C° 0 mm 1 mps 759 mmHg 42%
    11:00 +39°C° 0 mm 2 mps 758 mmHg 38%
    12:00 +40°C° 0 mm 3 mps 758 mmHg 34%
    13:00 +39°C° 0 mm 3 mps 757 mmHg 34%
    14:00 +40°C° 0 mm 4 mps 756 mmHg 35%
    15:00 +38°C° 0 mm 4 mps 756 mmHg 38%
    16:00 +36°C° 0 mm 4 mps 756 mmHg 41%
    17:00 +35°C° 0 mm 3 mps 756 mmHg 44%
    18:00 +34°C° 0 mm 3 mps 756 mmHg 46%
    19:00 +33°C° 0 mm 3 mps 757 mmHg 52%
    20:00 +31°C° 0 mm 3 mps 757 mmHg 58%
    21:00 +30°C° 0 mm 3 mps 758 mmHg 64%
    22:00 +30°C° 0 mm 3 mps 758 mmHg 67%
    23:00 +30°C° 0 mm 3 mps 758 mmHg 69%

    Mañana, 25 Septiembre, Lunes

    Tiempo Temperatura Precipitaciones Viento Presión Humedad
    00:00 +29°C° 0 mm 2 mps 758 mmHg 72%
    01:00 +29°C° 0 mm 2 mps 758 mmHg 74%
    02:00 +29°C° 0 mm 2 mps 758 mmHg 76%
    03:00 +28°C° 0 mm 2 mps 758 mmHg 78%
    04:00 +28°C° 0 mm 2 mps 758 mmHg 79%
    05:00 +28°C° 0 mm 2 mps 758 mmHg 81%
    06:00 +28°C° 0 mm 1 mps 758 mmHg 82%
    07:00 +30°C° 0 mm 1 mps 759 mmHg 72%
    08:00 +32°C° 0 mm 1 mps 759 mmHg 62%
    09:00 +35°C° 0 mm 1 mps 759 mmHg 52%
    10:00 +36°C° 0 mm 1 mps 759 mmHg 48%
    11:00 +38°C° 0 mm 2 mps 758 mmHg 43%
    12:00 +39°C° 0 mm 3 mps 758 mmHg 39%
    13:00 +39°C° 0 mm 3 mps 757 mmHg 41%
    14:00 +38°C° 0 mm 3 mps 757 mmHg 43%
    15:00 +37°C° 0 mm 3 mps 756 mmHg 45%
    16:00 +36°C° 0 mm 3 mps 756 mmHg 48%
    17:00 +35°C° 0 mm 3 mps 756 mmHg 51%
    18:00 +34°C° 0 mm 3 mps 756 mmHg 54%
    19:00 +34°C° 0 mm 3 mps 757 mmHg 58%
    20:00 +33°C° 0 mm 3 mps 757 mmHg 62%
    21:00 +31°C° 0 mm 3 mps 758 mmHg 66%
    22:00 +30°C° 0 mm 4 mps 758 mmHg 69%
    23:00 +30°C° 0 mm 4 mps 758 mmHg 72%

    Pasado mañana, 26 Septiembre, Martes

    Tiempo Temperatura Precipitaciones Viento Presión Humedad
    00:00 +30°C° 0 mm 4 mps 758 mmHg 75%
    01:00 +29°C° 0 mm 3 mps 758 mmHg 77%
    02:00 +29°C° 0 mm 3 mps 758 mmHg 78%
    03:00 +29°C° 0 mm 3 mps 758 mmHg 80%
    04:00 +28°C° 0,2 mm 2 mps 758 mmHg 81%
    05:00 +28°C° 0,2 mm 2 mps 758 mmHg 81%
    06:00 +28°C° 0,2 mm 1 mps 759 mmHg 82%
    07:00 +30°C° 0 mm 1 mps 759 mmHg 71%
    08:00 +32°C° 0 mm 1 mps 759 mmHg 61%
    09:00 +33°C° 0 mm 0 mps 760 mmHg 51%
    10:00 +36°C° 0 mm 1 mps 759 mmHg 45%
    11:00 +39°C° 0 mm 2 mps 759 mmHg 40%
    12:00 +40°C° 0 mm 2 mps 758 mmHg 34%
    13:00 +39°C° 0 mm 3 mps 758 mmHg 37%
    14:00 +38°C° 0 mm 4 mps 757 mmHg 40%
    15:00 +37°C° 0 mm 4 mps 756 mmHg 43%
    16:00 +36°C° 0 mm 4 mps 756 mmHg 47%
    17:00 +35°C° 0 mm 4 mps 756 mmHg 51%
    18:00 +34°C° 0 mm 4 mps 756 mmHg 54%
    19:00 +33°C° 0 mm 4 mps 757 mmHg 59%
    20:00 +32°C° 0 mm 4 mps 758 mmHg 64%
    21:00 +32°C° 0 mm 4 mps 759 mmHg 69%
    22:00 +30°C° 0 mm 3 mps 759 mmHg 71%
    23:00 +30°C° 0 mm 3 mps 759 mmHg 74%

    27 Septiembre, Miércoles

    Tiempo Temperatura Precipitaciones Viento Presión Humedad
    00:00 +29°C° 0 mm 3 mps 759 mmHg 76%
    01:00 +29°C° 0,1 mm 2 mps 759 mmHg 77%
    02:00 +29°C° 0,1 mm 2 mps 758 mmHg 78%
    03:00 +29°C° 0,1 mm 2 mps 758 mmHg 80%
    04:00 +28°C° 0,1 mm 1 mps 758 mmHg 80%
    05:00 +28°C° 0,1 mm 1 mps 759 mmHg 81%
    06:00 +28°C° 0,1 mm 1 mps 759 mmHg 82%
    07:00 +30°C° 0 mm 1 mps 759 mmHg 71%
    08:00 +32°C° 0 mm 1 mps 760 mmHg 60%
    09:00 +35°C° 0 mm 1 mps 760 mmHg 49%
    10:00 +36°C° 0 mm 1 mps 760 mmHg 44%
    11:00 +39°C° 0 mm 2 mps 759 mmHg 38%
    12:00 +40°C° 0 mm 3 mps 759 mmHg 33%
    13:00 +40°C° 0 mm 3 mps 758 mmHg 34%
    14:00 +40°C° 0 mm 4 mps 757 mmHg 35%
    15:00 +40°C° 0 mm 4 mps 756 mmHg 37%
    16:00 +37°C° 0 mm 4 mps 756 mmHg 41%
    17:00 +36°C° 0 mm 4 mps 757 mmHg 45%
    18:00 +34°C° 0 mm 3 mps 757 mmHg 50%
    19:00 +33°C° 0 mm 3 mps 757 mmHg 54%
    20:00 +33°C° 0 mm 3 mps 758 mmHg 59%
    21:00 +31°C° 0 mm 3 mps 759 mmHg 64%
    22:00 +30°C° 0 mm 3 mps 759 mmHg 67%
    23:00 +30°C° 0 mm 3 mps 759 mmHg 70%

    28 Septiembre, Jueves

    Tiempo Temperatura Precipitaciones Viento Presión Humedad
    00:00 +30°C° 0 mm 3 mps 759 mmHg 73%
    01:00 +29°C° 0 mm 3 mps 758 mmHg 74%
    02:00 +29°C° 0 mm 3 mps 758 mmHg 76%
    03:00 +29°C° 0 mm 2 mps 758 mmHg 78%
    04:00 +29°C° 0 mm 2 mps 758 mmHg 79%
    05:00 +28°C° 0 mm 2 mps 758 mmHg 80%
    06:00 +28°C° 0 mm 2 mps 759 mmHg 81%
    07:00 +30°C° 0 mm 2 mps 759 mmHg 71%
    08:00 +32°C° 0 mm 1 mps 759 mmHg 61%
    09:00 +34°C° 0 mm 1 mps 760 mmHg 50%
    10:00 +37°C° 0 mm 2 mps 759 mmHg 46%
    11:00 +38°C° 0 mm 2 mps 758 mmHg 41%
    12:00 +39°C° 0 mm 3 mps 758 mmHg 36%
    13:00 +40°C° 0 mm 4 mps 757 mmHg 37%
    14:00 +38°C° 0 mm 4 mps 756 mmHg 38%
    15:00 +38°C° 0 mm 4 mps 756 mmHg 39%
    16:00 +37°C° 0 mm 4 mps 756 mmHg 43%
    17:00 +35°C° 0 mm 4 mps 756 mmHg 47%
    18:00 +34°C° 0 mm 4 mps 756 mmHg 51%
    19:00 +33°C° 0 mm 4 mps 757 mmHg 58%
    20:00 +32°C° 0 mm 4 mps 758 mmHg 65%
    21:00 +30°C° 0 mm 4 mps 758 mmHg 72%
    22:00 +30°C° 0 mm 3 mps 758 mmHg 73%
    23:00 +30°C° 0 mm 3 mps 758 mmHg 74%

    29 Septiembre, Viernes

    Tiempo Temperatura Precipitaciones Viento Presión Humedad
    00:00 +29°C° 0 mm 2 mps 758 mmHg 75%
    01:00 +29°C° 0 mm 2 mps 758 mmHg 76%
    02:00 +29°C° 0 mm 2 mps 758 mmHg 76%
    03:00 +29°C° 0 mm 1 mps 758 mmHg 77%
    04:00 +29°C° 0 mm 1 mps 758 mmHg 77%
    05:00 +28°C° 0 mm 2 mps 758 mmHg 78%
    06:00 +28°C° 0 mm 2 mps 759 mmHg 78%
    07:00 +30°C° 0 mm 2 mps 759 mmHg 69%
    08:00 +32°C° 0 mm 2 mps 760 mmHg 61%
    09:00 +35°C° 0 mm 2 mps 760 mmHg 52%
    10:00 +36°C° 0 mm 2 mps 760 mmHg 47%
    11:00 +37°C° 0 mm 3 mps 759 mmHg 42%
    12:00 +39°C° 0 mm 3 mps 759 mmHg 37%
    13:00 +38°C° 0 mm 3 mps 758 mmHg 39%
    14:00 +38°C° 0 mm 4 mps 757 mmHg 40%
    15:00 +37°C° 0 mm 4 mps 757 mmHg 42%
    16:00 +36°C° 0 mm 4 mps 757 mmHg 45%
    17:00 +35°C° 0 mm 4 mps 757 mmHg 47%
    18:00 +35°C° 0 mm 4 mps 758 mmHg 50%
    19:00 +34°C° 0 mm 4 mps 758 mmHg 56%
    20:00 +32°C° 0 mm 4 mps 759 mmHg 63%
    21:00 +30°C° 0 mm 4 mps 759 mmHg 69%
    22:00 +30°C° 0 mm 3 mps 759 mmHg 71%
    23:00 +30°C° 0 mm 3 mps 759 mmHg 73%
    Mostrar más